MST,Max TemperatureF,Mean TemperatureF,Min TemperatureF,Max Dew PointF,MeanDew PointF,Min DewpointF,Max Humidity, Mean Humidity, Min Humidity, Max Sea Level PressureIn, Mean Sea Level PressureIn, Min Sea Level PressureIn, Max VisibilityMiles, Mean VisibilityMiles, Min VisibilityMiles, Max Wind SpeedMPH, Mean Wind SpeedMPH, Max Gust SpeedMPH,PrecipitationIn, CloudCover, Events, WindDirDegrees
2013-1-1,11,0,-11,-4,-7,-13,87,69,50,30.34,30.08,29.85,10,10,9,16,7,21,0.00,4,,17
2013-1-2,15,3,-10,-2,-7,-14,87,69,51,30.37,30.23,30.02,10,10,7,20,8,24,0.00,4,,9
2013-1-3,23,2,-19,-5,-12,-22,87,54,21,30.58,30.40,30.25,10,10,10,16,4,20,0.00,0,,18
2013-1-4,37,17,-4,5,-2,-10,72,47,22,30.35,30.16,30.00,10,10,10,21,5,26,0.00,0,,3
2013-1-5,32,16,0,1,-6,-12,69,46,22,30.43,30.25,30.04,10,10,10,24,10,29,0.00,0,,11
2013-1-6,34,14,-6,1,-9,-18,52,34,15,30.38,30.20,29.97,10,10,10,15,3,17,0.00,0,,122
2013-1-7,40,21,2,-2,-9,-16,55,34,12,30.11,29.97,29.84,10,10,10,14,4,17,0.00,0,,17
2013-1-8,31,20,8,12,3,-13,80,52,23,30.35,30.07,29.81,10,10,10,16,7,21,0.00,0,,1
2013-1-9,38,22,5,9,4,0,83,55,27,30.44,30.28,30.05,10,10,10,13,4,16,0.00,0,,59
2013-1-10,35,21,6,6,1,-5,70,45,19,30.04,29.76,29.43,10,10,10,14,3,20,0.00,1,,182
2013-1-11,22,9,-5,14,2,-11,92,71,49,29.81,29.43,29.15,10,5,0,22,10,29,0.08,8,Fog-Snow,301
2013-1-12,5,-6,-18,-13,-16,-23,82,61,40,30.09,29.83,29.59,10,9,2,15,5,20,0.01,4,Snow,30
2013-1-13,2,-9,-20,-6,-16,-25,87,60,32,30.10,29.95,29.70,10,9,2,14,4,21,T,6,Snow,124
2013-1-14,7,-7,-22,-11,-17,-24,86,63,39,30.25,30.09,29.91,10,10,9,17,5,22,0.00,4,,26
2013-1-15,14,-2,-19,4,-6,-24,81,69,56,30.42,30.25,29.94,10,10,9,25,11,33,0.00,6,Snow,359
2013-1-16,32,19,5,15,8,3,92,70,47,30.41,30.29,30.20,10,9,2,17,9,22,0.00,3,Snow,13
2013-1-17,39,20,1,9,3,-3,88,54,19,30.53,30.40,30.27,10,10,10,13,4,17,0.00,0,,21
2013-1-18,34,18,2,1,-2,-5,72,47,22,30.39,30.30,30.20,10,10,10,18,9,23,0.00,0,,7
2013-1-19,39,24,8,1,-4,-9,55,36,16,30.43,30.30,30.17,10,10,10,17,8,23,0.00,0,,15
2013-1-20,35,22,8,-1,-6,-13,55,36,16,30.34,30.23,30.14,10,10,10,17,7,21,0.00,0,,10
2013-1-21,34,19,3,5,-1,-11,63,46,28,30.36,30.25,30.18,10,10,10,25,11,32,0.00,0,,9
2013-1-22,40,24,8,-10,-14,-20,32,21,10,30.41,30.26,30.17,10,10,10,22,9,29,0.00,0,,9
2013-1-23,48,30,12,-1,-12,-24,29,19,9,30.42,30.24,30.11,10,10,10,16,5,22,0.00,0,,6
2013-1-24,39,30,21,27,14,-8,92,56,19,30.30,30.12,30.02,10,8,2,25,10,31,0.01,5,Snow,349
2013-1-25,39,33,26,26,24,21,92,73,54,30.28,30.09,29.98,10,10,8,18,9,24,T,6,,4
2013-1-26,35,26,16,29,25,13,100,76,51,30.02,29.87,29.62,10,4,0,21,6,25,0.17,6,Fog-Snow,170
2013-1-27,37,26,14,28,19,9,92,66,40,29.82,29.71,29.61,10,9,2,17,7,23,T,4,Snow,353
2013-1-28,27,20,12,21,15,3,92,73,54,29.72,29.62,29.49,10,6,0,18,6,23,0.07,7,Fog-Snow,98
2013-1-29,13,3,-7,7,-3,-10,87,68,49,29.95,29.67,29.54,10,6,0,21,10,26,0.04,7,Fog-Snow,336
2013-1-30,15,5,-5,11,2,-9,87,80,73,30.08,29.93,29.75,8,2,0,22,12,31,0.17,8,Fog-Snow,320
2013-1-31,25,19,13,12,10,6,88,69,50,30.23,30.09,29.97,10,5,0,21,10,31,0.12,7,Fog-Snow,329